Year,Month,Day,Hour,Minute,Value (Times are PST for temperature in C)
2011,05,19,00,00,9.20
2011,05,19,00,01,9.20
2011,05,19,00,02,9.20
2011,05,19,00,03,9.20
2011,05,19,00,04,9.20
2011,05,19,00,05,9.20
2011,05,19,00,06,9.20
2011,05,19,00,07,9.10
2011,05,19,00,08,9.10
2011,05,19,00,09,9.10
2011,05,19,00,10,9.10
2011,05,19,00,11,9.10
2011,05,19,00,12,9.10
2011,05,19,00,13,9.10
2011,05,19,00,14,9.10
2011,05,19,00,15,9.00
2011,05,19,00,16,9.00
2011,05,19,00,17,9.00
2011,05,19,00,18,9.00
2011,05,19,00,19,9.00
2011,05,19,00,20,8.90
2011,05,19,00,21,8.90
2011,05,19,00,22,8.90
2011,05,19,00,23,8.90
2011,05,19,00,24,8.90
2011,05,19,00,25,8.80
2011,05,19,00,26,8.80
2011,05,19,00,27,8.80
2011,05,19,00,28,8.80
2011,05,19,00,29,8.80
2011,05,19,00,30,8.80
2011,05,19,00,31,8.80
2011,05,19,00,32,8.70
2011,05,19,00,33,8.70
2011,05,19,00,34,8.70
2011,05,19,00,35,8.70
2011,05,19,00,36,8.70
2011,05,19,00,37,8.60
2011,05,19,00,38,8.60
2011,05,19,00,39,8.60
2011,05,19,00,40,8.60
2011,05,19,00,41,8.60
2011,05,19,00,42,8.50
2011,05,19,00,43,8.50
2011,05,19,00,44,8.50
2011,05,19,00,45,8.50
2011,05,19,00,46,8.40
2011,05,19,00,47,8.40
2011,05,19,00,48,8.40
2011,05,19,00,49,8.40
2011,05,19,00,50,8.40
2011,05,19,00,51,8.40
2011,05,19,00,52,8.40
2011,05,19,00,53,8.30
2011,05,19,00,54,8.30
2011,05,19,00,55,8.30
2011,05,19,00,56,8.30
2011,05,19,00,57,8.30
2011,05,19,00,58,8.30
2011,05,19,00,59,8.30
2011,05,19,01,00,8.20
2011,05,19,01,01,8.20
2011,05,19,01,02,8.20
2011,05,19,01,03,8.20
2011,05,19,01,04,8.20
2011,05,19,01,05,8.20
2011,05,19,01,06,8.10
2011,05,19,01,07,8.10
2011,05,19,01,08,8.10
2011,05,19,01,09,8.10
2011,05,19,01,10,8.10
2011,05,19,01,11,8.10
2011,05,19,01,12,8.00
2011,05,19,01,13,8.00
2011,05,19,01,14,8.00
2011,05,19,01,15,8.00
2011,05,19,01,16,8.00
2011,05,19,01,17,8.00
2011,05,19,01,18,7.90
2011,05,19,01,19,7.90
2011,05,19,01,20,7.90
2011,05,19,01,21,7.90
2011,05,19,01,22,7.90
2011,05,19,01,23,7.80
2011,05,19,01,24,7.80
2011,05,19,01,25,7.80
2011,05,19,01,26,7.80
2011,05,19,01,27,7.80
2011,05,19,01,28,7.80
2011,05,19,01,29,7.80
2011,05,19,01,30,7.80
2011,05,19,01,31,7.80
2011,05,19,01,32,7.80
2011,05,19,01,33,7.80
2011,05,19,01,34,7.80
2011,05,19,01,35,7.80
2011,05,19,01,36,7.80
2011,05,19,01,37,7.80
2011,05,19,01,38,7.80
2011,05,19,01,39,7.80
2011,05,19,01,40,7.80
2011,05,19,01,41,7.80
2011,05,19,01,42,7.70
2011,05,19,01,43,7.70
2011,05,19,01,44,7.70
2011,05,19,01,45,7.70
2011,05,19,01,46,7.70
2011,05,19,01,47,7.70
2011,05,19,01,48,7.70
2011,05,19,01,49,7.60
2011,05,19,01,50,7.60
2011,05,19,01,51,7.60
2011,05,19,01,52,7.50
2011,05,19,01,53,7.50
2011,05,19,01,54,7.50
2011,05,19,01,55,7.40
2011,05,19,01,56,7.40
2011,05,19,01,57,7.40
2011,05,19,01,58,7.40
2011,05,19,01,59,7.30
2011,05,19,02,00,7.30
2011,05,19,02,01,7.30
2011,05,19,02,02,7.30
2011,05,19,02,03,7.20
2011,05,19,02,04,7.20
2011,05,19,02,05,7.20
2011,05,19,02,06,7.20
2011,05,19,02,07,7.20
2011,05,19,02,08,7.20
2011,05,19,02,09,7.20
2011,05,19,02,10,7.20
2011,05,19,02,11,7.20
2011,05,19,02,12,7.20
2011,05,19,02,13,7.10
2011,05,19,02,14,7.10
2011,05,19,02,15,7.10
2011,05,19,02,16,7.10
2011,05,19,02,17,7.00
2011,05,19,02,18,7.00
2011,05,19,02,19,7.00
2011,05,19,02,20,7.00
2011,05,19,02,21,6.90
2011,05,19,02,22,6.90
2011,05,19,02,23,6.90
2011,05,19,02,24,6.90
2011,05,19,02,25,6.90
2011,05,19,02,26,6.90
2011,05,19,02,27,6.90
2011,05,19,02,28,6.80
2011,05,19,02,29,6.80
2011,05,19,02,30,6.80
2011,05,19,02,31,6.80
2011,05,19,02,32,6.80
2011,05,19,02,33,6.80
2011,05,19,02,34,6.80
2011,05,19,02,35,6.80
2011,05,19,02,36,6.80
2011,05,19,02,37,6.90
2011,05,19,02,38,6.90
2011,05,19,02,39,6.90
2011,05,19,02,40,7.00
2011,05,19,02,41,7.00
2011,05,19,02,42,7.00
2011,05,19,02,43,7.00
2011,05,19,02,44,7.10
2011,05,19,02,45,7.10
2011,05,19,02,46,7.10
2011,05,19,02,47,7.10
2011,05,19,02,48,7.10
2011,05,19,02,49,7.10
2011,05,19,02,50,7.20
2011,05,19,02,51,7.20
2011,05,19,02,52,7.20
2011,05,19,02,53,7.20
2011,05,19,02,54,7.20
2011,05,19,02,55,7.20
2011,05,19,02,56,7.20
2011,05,19,02,57,7.20
2011,05,19,02,58,7.20
2011,05,19,02,59,7.20
2011,05,19,03,00,7.20
2011,05,19,03,01,7.20
2011,05,19,03,02,7.10
2011,05,19,03,03,7.10
2011,05,19,03,04,7.10
2011,05,19,03,05,7.10
2011,05,19,03,06,7.10
2011,05,19,03,07,7.00
2011,05,19,03,08,7.00
2011,05,19,03,09,7.00
2011,05,19,03,10,6.90
2011,05,19,03,11,6.90
2011,05,19,03,12,6.90
2011,05,19,03,13,6.90
2011,05,19,03,14,6.90
2011,05,19,03,15,6.90
2011,05,19,03,16,6.90
2011,05,19,03,17,6.90
2011,05,19,03,18,6.90
2011,05,19,03,19,6.90
2011,05,19,03,20,6.90
2011,05,19,03,21,6.90
2011,05,19,03,22,6.90
2011,05,19,03,23,6.90
2011,05,19,03,24,6.90
2011,05,19,03,25,6.90
2011,05,19,03,26,6.90
2011,05,19,03,27,7.00
2011,05,19,03,28,7.00
2011,05,19,03,29,7.00
2011,05,19,03,30,7.00
2011,05,19,03,31,7.00
2011,05,19,03,32,7.00
2011,05,19,03,33,7.00
2011,05,19,03,34,7.00
2011,05,19,03,35,7.00
2011,05,19,03,36,7.00
2011,05,19,03,37,7.00
2011,05,19,03,38,7.00
2011,05,19,03,39,7.00
2011,05,19,03,40,7.00
2011,05,19,03,41,7.00
2011,05,19,03,42,7.00
2011,05,19,03,43,7.00
2011,05,19,03,44,6.90
2011,05,19,03,45,6.90
2011,05,19,03,46,6.90
2011,05,19,03,47,6.90
2011,05,19,03,48,6.90
2011,05,19,03,49,6.90
2011,05,19,03,50,6.90
2011,05,19,03,51,6.80
2011,05,19,03,52,6.80
2011,05,19,03,53,6.70
2011,05,19,03,54,6.60
2011,05,19,03,55,6.50
2011,05,19,03,56,6.40
2011,05,19,03,57,6.30
2011,05,19,03,58,6.30
2011,05,19,03,59,6.20
2011,05,19,04,00,6.20
2011,05,19,04,01,6.10
2011,05,19,04,02,6.10
2011,05,19,04,03,6.00
2011,05,19,04,04,5.90
2011,05,19,04,05,5.90
2011,05,19,04,06,5.90
2011,05,19,04,07,5.90
2011,05,19,04,08,5.80
2011,05,19,04,09,5.80
2011,05,19,04,10,5.80
2011,05,19,04,11,5.80
2011,05,19,04,12,5.70
2011,05,19,04,13,5.70
2011,05,19,04,14,5.60
2011,05,19,04,15,5.60
2011,05,19,04,16,5.60
2011,05,19,04,17,5.50
2011,05,19,04,18,5.50
2011,05,19,04,19,5.40
2011,05,19,04,20,5.40
2011,05,19,04,21,5.40
2011,05,19,04,22,5.40
2011,05,19,04,23,5.40
2011,05,19,04,24,5.50
2011,05,19,04,25,5.50
2011,05,19,04,26,5.50
2011,05,19,04,27,5.50
2011,05,19,04,28,5.50
2011,05,19,04,29,5.50
2011,05,19,04,30,5.50
2011,05,19,04,31,5.50
2011,05,19,04,32,5.50
2011,05,19,04,33,5.50
2011,05,19,04,34,5.50
2011,05,19,04,35,5.50
2011,05,19,04,36,5.60
2011,05,19,04,37,5.60
2011,05,19,04,38,5.60
2011,05,19,04,39,5.60
2011,05,19,04,40,5.60
2011,05,19,04,41,5.60
2011,05,19,04,42,5.60
2011,05,19,04,43,5.60
2011,05,19,04,44,5.60
2011,05,19,04,45,5.60
2011,05,19,04,46,5.60
2011,05,19,04,47,5.60
2011,05,19,04,48,5.60
2011,05,19,04,49,5.60
2011,05,19,04,50,5.60
2011,05,19,04,51,5.60
2011,05,19,04,52,5.60
2011,05,19,04,53,5.60
2011,05,19,04,54,5.60
2011,05,19,04,55,5.60
2011,05,19,04,56,5.70
2011,05,19,04,57,5.70
2011,05,19,04,58,5.80
2011,05,19,04,59,5.80
2011,05,19,05,00,5.80
2011,05,19,05,01,5.80
2011,05,19,05,02,5.80
2011,05,19,05,03,5.90
2011,05,19,05,04,5.90
2011,05,19,05,05,5.90
2011,05,19,05,06,5.90
2011,05,19,05,07,5.80
2011,05,19,05,08,5.80
2011,05,19,05,09,5.80
2011,05,19,05,10,5.80
2011,05,19,05,11,5.80
2011,05,19,05,12,5.70
2011,05,19,05,13,5.70
2011,05,19,05,14,5.70
2011,05,19,05,15,5.70
2011,05,19,05,16,5.70
2011,05,19,05,17,5.70
2011,05,19,05,18,5.70
2011,05,19,05,19,5.70
2011,05,19,05,20,5.60
2011,05,19,05,21,5.60
2011,05,19,05,22,5.60
2011,05,19,05,23,5.60
2011,05,19,05,24,5.60
2011,05,19,05,25,5.60
2011,05,19,05,26,5.60
2011,05,19,05,27,5.70
2011,05,19,05,28,5.70
2011,05,19,05,29,5.70
2011,05,19,05,30,5.80
2011,05,19,05,31,5.80
2011,05,19,05,32,5.80
2011,05,19,05,33,5.80
2011,05,19,05,34,5.80
2011,05,19,05,35,5.80
2011,05,19,05,36,5.70
2011,05,19,05,37,5.70
2011,05,19,05,38,5.70
2011,05,19,05,39,5.70
2011,05,19,05,40,5.70
2011,05,19,05,41,5.70
2011,05,19,05,42,5.70
2011,05,19,05,43,5.70
2011,05,19,05,44,5.70
2011,05,19,05,45,5.70
2011,05,19,05,46,5.70
2011,05,19,05,47,5.60
2011,05,19,05,48,5.60
2011,05,19,05,49,5.60
2011,05,19,05,50,5.60
2011,05,19,05,51,5.60
2011,05,19,05,52,5.60
2011,05,19,05,53,5.60
2011,05,19,05,54,5.60
2011,05,19,05,55,5.60
2011,05,19,05,56,5.70
2011,05,19,05,57,5.70
2011,05,19,05,58,5.70
2011,05,19,05,59,5.70
2011,05,19,06,00,5.70
2011,05,19,06,01,5.70
2011,05,19,06,02,5.70
2011,05,19,06,03,5.70
2011,05,19,06,04,5.70
2011,05,19,06,05,5.70
2011,05,19,06,06,5.70
2011,05,19,06,07,5.70
2011,05,19,06,08,5.70
2011,05,19,06,09,5.70
2011,05,19,06,10,5.70
2011,05,19,06,11,5.80
2011,05,19,06,12,5.80
2011,05,19,06,13,5.80
2011,05,19,06,14,5.80
2011,05,19,06,15,5.80
2011,05,19,06,16,5.80
2011,05,19,06,17,5.90
2011,05,19,06,18,5.90
2011,05,19,06,19,5.90
2011,05,19,06,20,5.90
2011,05,19,06,21,5.90
2011,05,19,06,22,6.00
2011,05,19,06,23,5.90
2011,05,19,06,24,6.00
2011,05,19,06,25,6.00
2011,05,19,06,26,6.00
2011,05,19,06,27,6.00
2011,05,19,06,28,6.10
2011,05,19,06,29,6.10
2011,05,19,06,30,6.10
2011,05,19,06,31,6.10
2011,05,19,06,32,6.20
2011,05,19,06,33,6.20
2011,05,19,06,34,6.20
2011,05,19,06,35,6.30
2011,05,19,06,36,6.30
2011,05,19,06,37,6.30
2011,05,19,06,38,6.40
2011,05,19,06,39,6.40
2011,05,19,06,40,6.50
2011,05,19,06,41,6.50
2011,05,19,06,42,6.60
2011,05,19,06,43,6.60
2011,05,19,06,44,6.70
2011,05,19,06,45,6.70
2011,05,19,06,46,6.80
2011,05,19,06,47,6.80
2011,05,19,06,48,6.90
2011,05,19,06,49,7.00
2011,05,19,06,50,7.10
2011,05,19,06,51,7.20
2011,05,19,06,52,7.20
2011,05,19,06,53,7.20
2011,05,19,06,54,7.30
2011,05,19,06,55,7.30
2011,05,19,06,56,7.30
2011,05,19,06,57,7.30
2011,05,19,06,58,7.30
2011,05,19,06,59,7.40
2011,05,19,07,00,7.40
2011,05,19,07,01,7.40
2011,05,19,07,02,7.40
2011,05,19,07,03,7.50
2011,05,19,07,04,7.60
2011,05,19,07,05,7.60
2011,05,19,07,06,7.70
2011,05,19,07,07,7.70
2011,05,19,07,08,7.80
2011,05,19,07,09,7.90
2011,05,19,07,10,7.90
2011,05,19,07,11,8.00
2011,05,19,07,12,8.10
2011,05,19,07,13,8.20
2011,05,19,07,14,8.20
2011,05,19,07,15,8.30
2011,05,19,07,16,8.40
2011,05,19,07,17,8.40
2011,05,19,07,18,8.50
2011,05,19,07,19,8.60
2011,05,19,07,20,8.60
2011,05,19,07,21,8.70
2011,05,19,07,22,8.70
2011,05,19,07,23,8.70
2011,05,19,07,24,8.80
2011,05,19,07,25,8.90
2011,05,19,07,26,8.90
2011,05,19,07,27,9.00
2011,05,19,07,28,9.00
2011,05,19,07,29,9.10
2011,05,19,07,30,9.10
2011,05,19,07,31,9.10
2011,05,19,07,32,9.10
2011,05,19,07,33,9.10
2011,05,19,07,34,9.10
2011,05,19,07,35,9.10
2011,05,19,07,36,9.10
2011,05,19,07,37,9.10
2011,05,19,07,38,9.10
2011,05,19,07,39,9.10
2011,05,19,07,40,9.20
2011,05,19,07,41,9.20
2011,05,19,07,42,9.20
2011,05,19,07,43,9.20
2011,05,19,07,44,9.30
2011,05,19,07,45,9.30
2011,05,19,07,46,9.30
2011,05,19,07,47,9.40
2011,05,19,07,48,9.40
2011,05,19,07,49,9.50
2011,05,19,07,50,9.60
2011,05,19,07,51,9.60
2011,05,19,07,52,9.70
2011,05,19,07,53,9.70
2011,05,19,07,54,9.80
2011,05,19,07,55,9.80
2011,05,19,07,56,9.90
2011,05,19,07,57,9.90
2011,05,19,07,58,10.00
2011,05,19,07,59,10.00
2011,05,19,08,00,10.10
2011,05,19,08,01,10.20
2011,05,19,08,02,10.30
2011,05,19,08,03,10.30
2011,05,19,08,04,10.30
2011,05,19,08,05,10.30
2011,05,19,08,06,10.30
2011,05,19,08,07,10.30
2011,05,19,08,08,10.20
2011,05,19,08,09,10.10
2011,05,19,08,10,10.10
2011,05,19,08,11,10.00
2011,05,19,08,12,9.90
2011,05,19,08,13,9.90
2011,05,19,08,14,9.90
2011,05,19,08,15,9.90
2011,05,19,08,16,9.90
2011,05,19,08,17,10.00
2011,05,19,08,18,10.00
2011,05,19,08,19,10.10
2011,05,19,08,20,10.20
2011,05,19,08,21,10.20
2011,05,19,08,22,10.30
2011,05,19,08,23,10.40
2011,05,19,08,24,10.50
2011,05,19,08,25,10.60
2011,05,19,08,26,10.70
2011,05,19,08,27,10.70
2011,05,19,08,28,10.70
2011,05,19,08,29,10.80
2011,05,19,08,30,10.80
2011,05,19,08,31,10.90
2011,05,19,08,32,11.00
2011,05,19,08,33,11.10
2011,05,19,08,34,11.10
2011,05,19,08,35,11.10
2011,05,19,08,36,11.20
2011,05,19,08,37,11.20
2011,05,19,08,38,11.20
2011,05,19,08,39,11.30
2011,05,19,08,40,11.30
2011,05,19,08,41,11.40
2011,05,19,08,42,11.50
2011,05,19,08,43,11.60
2011,05,19,08,44,11.60
2011,05,19,08,45,11.70
2011,05,19,08,46,11.60
2011,05,19,08,47,11.50
2011,05,19,08,48,11.40
2011,05,19,08,49,11.30
2011,05,19,08,50,11.20
2011,05,19,08,51,11.10
2011,05,19,08,52,11.00
2011,05,19,08,53,10.90
2011,05,19,08,54,10.90
2011,05,19,08,55,10.90
2011,05,19,08,56,10.80
2011,05,19,08,57,10.80
2011,05,19,08,58,10.70
2011,05,19,08,59,10.60
2011,05,19,09,00,10.50
2011,05,19,09,01,10.40
2011,05,19,09,02,10.30
2011,05,19,09,03,10.30
2011,05,19,09,04,10.30
2011,05,19,09,05,10.30
2011,05,19,09,06,10.30
2011,05,19,09,07,10.40
2011,05,19,09,08,10.30
2011,05,19,09,09,10.20
2011,05,19,09,10,10.10
2011,05,19,09,11,10.00
2011,05,19,09,12,9.90
2011,05,19,09,13,10.00
2011,05,19,09,14,9.90
2011,05,19,09,15,9.90
2011,05,19,09,16,9.90
2011,05,19,09,17,9.90
2011,05,19,09,18,10.00
2011,05,19,09,19,10.10
2011,05,19,09,20,10.20
2011,05,19,09,21,10.20
2011,05,19,09,22,10.20
2011,05,19,09,23,10.20
2011,05,19,09,24,10.30
2011,05,19,09,25,10.40
2011,05,19,09,26,10.40
2011,05,19,09,27,10.40
2011,05,19,09,28,10.50
2011,05,19,09,29,10.50
2011,05,19,09,30,10.60
2011,05,19,09,31,10.70
2011,05,19,09,32,10.70
2011,05,19,09,33,10.70
2011,05,19,09,34,10.70
2011,05,19,09,35,10.70
2011,05,19,09,36,10.70
2011,05,19,09,37,10.60
2011,05,19,09,38,10.50
2011,05,19,09,39,10.50
2011,05,19,09,40,10.40
2011,05,19,09,41,10.40
2011,05,19,09,42,10.40
2011,05,19,09,43,10.30
2011,05,19,09,44,10.20
2011,05,19,09,45,10.20
2011,05,19,09,46,10.20
2011,05,19,09,47,10.10
2011,05,19,09,48,10.00
2011,05,19,09,49,10.00
2011,05,19,09,50,10.10
2011,05,19,09,51,10.10
2011,05,19,09,52,10.20
2011,05,19,09,53,10.30
2011,05,19,09,54,10.30
2011,05,19,09,55,10.20
2011,05,19,09,56,10.10
2011,05,19,09,57,10.00
2011,05,19,09,58,10.00
2011,05,19,09,59,10.10
2011,05,19,10,00,10.10
2011,05,19,10,01,10.20
2011,05,19,10,02,10.30
2011,05,19,10,03,10.20
2011,05,19,10,04,10.20
2011,05,19,10,05,10.30
2011,05,19,10,06,10.30
2011,05,19,10,07,10.20
2011,05,19,10,08,10.20
2011,05,19,10,09,10.30
2011,05,19,10,10,10.30
2011,05,19,10,11,10.30
2011,05,19,10,12,10.30
2011,05,19,10,13,10.30
2011,05,19,10,14,10.30
2011,05,19,10,15,10.30
2011,05,19,10,16,10.30
2011,05,19,10,17,10.30
2011,05,19,10,18,10.40
2011,05,19,10,19,10.30
2011,05,19,10,20,10.30
2011,05,19,10,21,10.30
2011,05,19,10,22,10.30
2011,05,19,10,23,10.40
2011,05,19,10,24,10.60
2011,05,19,10,25,10.60
2011,05,19,10,26,10.60
2011,05,19,10,27,10.70
2011,05,19,10,28,10.70
2011,05,19,10,29,10.70
2011,05,19,10,30,10.70
2011,05,19,10,31,10.70
2011,05,19,10,32,10.60
2011,05,19,10,33,10.70
2011,05,19,10,34,10.80
2011,05,19,10,35,10.90
2011,05,19,10,36,10.90
2011,05,19,10,37,10.90
2011,05,19,10,38,10.90
2011,05,19,10,39,10.90
2011,05,19,10,40,11.00
2011,05,19,10,41,10.90
2011,05,19,10,42,10.80
2011,05,19,10,43,10.80
2011,05,19,10,44,10.70
2011,05,19,10,45,10.70
2011,05,19,10,46,10.70
2011,05,19,10,47,10.70
2011,05,19,10,48,10.80
2011,05,19,10,49,10.90
2011,05,19,10,50,11.00
2011,05,19,10,51,11.10
2011,05,19,10,52,11.10
2011,05,19,10,53,11.10
2011,05,19,10,54,11.10
2011,05,19,10,55,11.10
2011,05,19,10,56,11.00
2011,05,19,10,57,11.00
2011,05,19,10,58,11.00
2011,05,19,10,59,11.00
2011,05,19,11,00,11.10
2011,05,19,11,01,11.10
2011,05,19,11,02,11.10
2011,05,19,11,03,11.10
2011,05,19,11,04,11.10
2011,05,19,11,05,11.00
2011,05,19,11,06,10.90
2011,05,19,11,07,10.90
2011,05,19,11,08,10.90
2011,05,19,11,09,10.90
2011,05,19,11,10,11.00
2011,05,19,11,11,11.00
2011,05,19,11,12,11.10
2011,05,19,11,13,11.10
2011,05,19,11,14,11.20
2011,05,19,11,15,11.20
2011,05,19,11,16,11.00
2011,05,19,11,17,10.90
2011,05,19,11,18,10.90
2011,05,19,11,19,10.90
2011,05,19,11,20,10.90
2011,05,19,11,21,10.90
2011,05,19,11,22,10.90
2011,05,19,11,23,11.00
2011,05,19,11,24,11.10
2011,05,19,11,25,11.10
2011,05,19,11,26,11.20
2011,05,19,11,27,11.20
2011,05,19,11,28,11.30
2011,05,19,11,29,11.30
2011,05,19,11,30,11.20
2011,05,19,11,31,11.20
2011,05,19,11,32,11.30
2011,05,19,11,33,11.40
2011,05,19,11,34,11.30
2011,05,19,11,35,11.30
2011,05,19,11,36,11.30
2011,05,19,11,37,11.30
2011,05,19,11,38,11.20
2011,05,19,11,39,11.10
2011,05,19,11,40,11.10
2011,05,19,11,41,11.10
2011,05,19,11,42,11.10
2011,05,19,11,43,11.10
2011,05,19,11,44,11.20
2011,05,19,11,45,11.20
2011,05,19,11,46,11.20
2011,05,19,11,47,11.30
2011,05,19,11,48,11.40
2011,05,19,11,49,11.50
2011,05,19,11,50,11.70
2011,05,19,11,51,11.70
2011,05,19,11,52,11.80
2011,05,19,11,53,11.80
2011,05,19,11,54,11.90
2011,05,19,11,55,11.90
2011,05,19,11,56,12.00
2011,05,19,11,57,12.10
2011,05,19,11,58,12.10
2011,05,19,11,59,12.10
2011,05,19,12,00,12.10
2011,05,19,12,01,12.00
2011,05,19,12,02,11.80
2011,05,19,12,03,11.70
2011,05,19,12,04,11.70
2011,05,19,12,05,11.70
2011,05,19,12,06,11.60
2011,05,19,12,07,11.60
2011,05,19,12,08,11.50
2011,05,19,12,09,11.40
2011,05,19,12,10,11.40
2011,05,19,12,11,11.40
2011,05,19,12,12,11.50
2011,05,19,12,13,11.40
2011,05,19,12,14,11.50
2011,05,19,12,15,11.60
2011,05,19,12,16,11.70
2011,05,19,12,17,11.80
2011,05,19,12,18,11.90
2011,05,19,12,19,11.90
2011,05,19,12,20,12.00
2011,05,19,12,21,12.00
2011,05,19,12,22,11.90
2011,05,19,12,23,11.80
2011,05,19,12,24,11.70
2011,05,19,12,25,11.70
2011,05,19,12,26,11.70
2011,05,19,12,27,11.70
2011,05,19,12,28,11.80
2011,05,19,12,29,11.70
2011,05,19,12,30,11.70
2011,05,19,12,31,11.70
2011,05,19,12,32,11.70
2011,05,19,12,33,11.70
2011,05,19,12,34,11.80
2011,05,19,12,35,11.70
2011,05,19,12,36,11.60
2011,05,19,12,37,11.40
2011,05,19,12,38,11.40
2011,05,19,12,39,11.40
2011,05,19,12,40,11.50
2011,05,19,12,41,11.70
2011,05,19,12,42,11.80
2011,05,19,12,43,11.80
2011,05,19,12,44,11.80
2011,05,19,12,45,11.80
2011,05,19,12,46,11.80
2011,05,19,12,47,11.80
2011,05,19,12,48,11.80
2011,05,19,12,49,11.80
2011,05,19,12,50,11.80
2011,05,19,12,51,11.90
2011,05,19,12,52,12.00
2011,05,19,12,53,12.10
2011,05,19,12,54,12.10
2011,05,19,12,55,12.10
2011,05,19,12,56,12.10
2011,05,19,12,57,12.00
2011,05,19,12,58,12.00
2011,05,19,12,59,11.90
2011,05,19,13,00,11.90
2011,05,19,13,01,11.80
2011,05,19,13,02,11.90
2011,05,19,13,03,11.90
2011,05,19,13,04,11.90
2011,05,19,13,05,11.90
2011,05,19,13,06,11.90
2011,05,19,13,07,11.90
2011,05,19,13,08,11.90
2011,05,19,13,09,11.90
2011,05,19,13,10,12.00
2011,05,19,13,11,12.10
2011,05,19,13,12,12.10
2011,05,19,13,13,12.10
2011,05,19,13,14,12.00
2011,05,19,13,15,11.90
2011,05,19,13,16,11.90
2011,05,19,13,17,12.00
2011,05,19,13,18,12.10
2011,05,19,13,19,12.00
2011,05,19,13,20,12.00
2011,05,19,13,21,12.10
2011,05,19,13,22,12.10
2011,05,19,13,23,12.10
2011,05,19,13,24,11.90
2011,05,19,13,25,11.70
2011,05,19,13,26,11.50
2011,05,19,13,27,11.50
2011,05,19,13,28,11.40
2011,05,19,13,29,11.50
2011,05,19,13,30,11.80
2011,05,19,13,31,11.90
2011,05,19,13,32,12.10
2011,05,19,13,33,12.20
2011,05,19,13,34,12.10
2011,05,19,13,35,12.10
2011,05,19,13,36,12.00
2011,05,19,13,37,11.90
2011,05,19,13,38,11.80
2011,05,19,13,39,11.80
2011,05,19,13,40,11.80
2011,05,19,13,41,11.80
2011,05,19,13,42,11.80
2011,05,19,13,43,11.90
2011,05,19,13,44,12.00
2011,05,19,13,45,12.10
2011,05,19,13,46,12.20
2011,05,19,13,47,12.20
2011,05,19,13,48,12.20
2011,05,19,13,49,12.10
2011,05,19,13,50,12.10
2011,05,19,13,51,12.10
2011,05,19,13,52,12.20
2011,05,19,13,53,12.30
2011,05,19,13,54,12.30
2011,05,19,13,55,12.40
2011,05,19,13,56,12.30
2011,05,19,13,57,12.30
2011,05,19,13,58,12.50
2011,05,19,13,59,12.60
2011,05,19,14,00,12.60
2011,05,19,14,01,12.60
2011,05,19,14,02,12.60
2011,05,19,14,03,12.60
2011,05,19,14,04,12.50
2011,05,19,14,05,12.50
2011,05,19,14,06,12.40
2011,05,19,14,07,12.40
2011,05,19,14,08,12.30
2011,05,19,14,09,12.30
2011,05,19,14,10,12.30
2011,05,19,14,11,12.30
2011,05,19,14,12,12.20
2011,05,19,14,13,12.20
2011,05,19,14,14,12.10
2011,05,19,14,15,12.10
2011,05,19,14,16,12.00
2011,05,19,14,17,11.90
2011,05,19,14,18,12.00
2011,05,19,14,19,12.10
2011,05,19,14,20,12.20
2011,05,19,14,21,12.30
2011,05,19,14,22,12.30
2011,05,19,14,23,12.30
2011,05,19,14,24,12.30
2011,05,19,14,25,12.50
2011,05,19,14,26,12.60
2011,05,19,14,27,12.70
2011,05,19,14,28,12.80
2011,05,19,14,29,12.80
2011,05,19,14,30,12.80
2011,05,19,14,31,12.80
2011,05,19,14,32,12.80
2011,05,19,14,33,12.80
2011,05,19,14,34,12.90
2011,05,19,14,35,13.00
2011,05,19,14,36,13.00
2011,05,19,14,37,13.00
2011,05,19,14,38,12.90
2011,05,19,14,39,12.90
2011,05,19,14,40,12.90
2011,05,19,14,41,13.00
2011,05,19,14,42,12.90
2011,05,19,14,43,12.90
2011,05,19,14,44,12.70
2011,05,19,14,45,12.50
2011,05,19,14,46,12.40
2011,05,19,14,47,12.30
2011,05,19,14,48,12.20
2011,05,19,14,49,12.10
2011,05,19,14,50,12.10
2011,05,19,14,51,12.00
2011,05,19,14,52,11.90
2011,05,19,14,53,12.10
2011,05,19,14,54,12.20
2011,05,19,14,55,12.30
2011,05,19,14,56,12.30
2011,05,19,14,57,12.30
2011,05,19,14,58,12.20
2011,05,19,14,59,12.30
2011,05,19,15,00,12.40
2011,05,19,15,01,12.50
2011,05,19,15,02,12.70
2011,05,19,15,03,12.80
2011,05,19,15,04,12.90
2011,05,19,15,05,13.00
2011,05,19,15,06,13.10
2011,05,19,15,07,13.10
2011,05,19,15,08,13.00
2011,05,19,15,09,12.90
2011,05,19,15,10,12.80
2011,05,19,15,11,12.70
2011,05,19,15,12,12.70
2011,05,19,15,13,12.70
2011,05,19,15,14,12.70
2011,05,19,15,15,12.70
2011,05,19,15,16,12.70
2011,05,19,15,17,12.70
2011,05,19,15,18,12.80
2011,05,19,15,19,12.80
2011,05,19,15,20,12.80
2011,05,19,15,21,12.80
2011,05,19,15,22,12.80
2011,05,19,15,23,12.90
2011,05,19,15,24,13.00
2011,05,19,15,25,13.10
2011,05,19,15,26,13.10
2011,05,19,15,27,13.10
2011,05,19,15,28,13.00
2011,05,19,15,29,13.10
2011,05,19,15,30,13.20
2011,05,19,15,31,13.40
2011,05,19,15,32,13.60
2011,05,19,15,33,13.70
2011,05,19,15,34,13.90
2011,05,19,15,35,14.10
2011,05,19,15,36,14.30
2011,05,19,15,37,14.40
2011,05,19,15,38,14.50
2011,05,19,15,39,14.40
2011,05,19,15,40,14.30
2011,05,19,15,41,14.30
2011,05,19,15,42,14.40
2011,05,19,15,43,14.50
2011,05,19,15,44,14.50
2011,05,19,15,45,14.50
2011,05,19,15,46,14.50
2011,05,19,15,47,14.50
2011,05,19,15,48,14.50
2011,05,19,15,49,14.60
2011,05,19,15,50,14.80
2011,05,19,15,51,14.90
2011,05,19,15,52,15.00
2011,05,19,15,53,15.00
2011,05,19,15,54,15.00
2011,05,19,15,55,15.00
2011,05,19,15,56,15.00
2011,05,19,15,57,15.10
2011,05,19,15,58,15.20
2011,05,19,15,59,15.20
2011,05,19,16,00,15.10
2011,05,19,16,01,15.00
2011,05,19,16,02,15.00
2011,05,19,16,03,15.10
2011,05,19,16,04,15.20
2011,05,19,16,05,15.30
2011,05,19,16,06,15.40
2011,05,19,16,07,15.50
2011,05,19,16,08,15.60
2011,05,19,16,09,15.60
2011,05,19,16,10,15.60
2011,05,19,16,11,15.50
2011,05,19,16,12,15.50
2011,05,19,16,13,15.50
2011,05,19,16,14,15.60
2011,05,19,16,15,15.60
2011,05,19,16,16,15.70
2011,05,19,16,17,15.70
2011,05,19,16,18,15.80
2011,05,19,16,19,15.80
2011,05,19,16,20,15.80
2011,05,19,16,21,15.90
2011,05,19,16,22,16.00
2011,05,19,16,23,16.10
2011,05,19,16,24,16.20
2011,05,19,16,25,16.30
2011,05,19,16,26,16.30
2011,05,19,16,27,16.30
2011,05,19,16,28,16.20
2011,05,19,16,29,16.10
2011,05,19,16,30,16.00
2011,05,19,16,31,16.00
2011,05,19,16,32,15.90
2011,05,19,16,33,15.90
2011,05,19,16,34,15.90
2011,05,19,16,35,16.00
2011,05,19,16,36,16.00
2011,05,19,16,37,16.20
2011,05,19,16,38,16.20
2011,05,19,16,39,16.20
2011,05,19,16,40,16.30
2011,05,19,16,41,16.30
2011,05,19,16,42,16.20
2011,05,19,16,43,16.10
2011,05,19,16,44,16.00
2011,05,19,16,45,15.90
2011,05,19,16,46,15.90
2011,05,19,16,47,15.90
2011,05,19,16,48,15.90
2011,05,19,16,49,15.90
2011,05,19,16,50,15.90
2011,05,19,16,51,16.00
2011,05,19,16,52,16.00
2011,05,19,16,53,16.00
2011,05,19,16,54,16.10
2011,05,19,16,55,16.10
2011,05,19,16,56,16.10
2011,05,19,16,57,16.10
2011,05,19,16,58,16.00
2011,05,19,16,59,16.00
2011,05,19,17,00,15.90
2011,05,19,17,01,15.80
2011,05,19,17,02,15.70
2011,05,19,17,03,15.80
2011,05,19,17,04,15.80
2011,05,19,17,05,15.80
2011,05,19,17,06,15.80
2011,05,19,17,07,15.70
2011,05,19,17,08,15.70
2011,05,19,17,09,15.60
2011,05,19,17,10,15.60
2011,05,19,17,11,15.60
2011,05,19,17,12,15.60
2011,05,19,17,13,15.60
2011,05,19,17,14,15.50
2011,05,19,17,15,15.50
2011,05,19,17,16,15.50
2011,05,19,17,17,15.40
2011,05,19,17,18,15.40
2011,05,19,17,19,15.30
2011,05,19,17,20,15.30
2011,05,19,17,21,15.30
2011,05,19,17,22,15.40
2011,05,19,17,23,15.40
2011,05,19,17,24,15.30
2011,05,19,17,25,15.30
2011,05,19,17,26,15.30
2011,05,19,17,27,15.30
2011,05,19,17,28,15.10
2011,05,19,17,29,15.00
2011,05,19,17,30,15.00
2011,05,19,17,31,15.00
2011,05,19,17,32,15.10
2011,05,19,17,33,15.10
2011,05,19,17,34,15.00
2011,05,19,17,35,15.00
2011,05,19,17,36,15.00
2011,05,19,17,37,14.90
2011,05,19,17,38,14.80
2011,05,19,17,39,14.70
2011,05,19,17,40,14.60